FW5449 Weather Reports


time (UTC)temp
C
wind
direction
speed
KPH
gust
KPH
rain 1hr
cm
rain 24hr
cm
rain mn
cm
humidity
%
barometer
mb
20260901032015 18 235 12.9 24.1 0.00 0.00 0.00 69 1008.8
20260901031736 18 245 17.7 27.4 0.00 0.00 0.00 68 1008.5
20260901031012 18 247 20.9 30.6 0.00 0.00 0.00 67 1008.3
20260901030510 18 241 20.9 30.6 0.00 0.00 0.00 66 1008.3
20260901030007 19 243 20.9 35.4 0.00 0.00 0.00 66 1008.2
20260901025509 19 222 20.9 35.4 0.00 0.00 0.00 65 1008.1
20260901025006 20 259 22.5 33.8 0.00 0.00 0.00 64 1008.2
20260901024457 20 238 22.5 33.8 0.00 0.00 0.00 63 1008.1
20260901023956 20 263 20.9 32.2 0.00 0.00 0.00 62 1008.0
20260901023454 20 257 22.5 33.8 0.00 0.00 0.00 62 1007.9
20260901022952 21 256 22.5 33.8 0.00 0.00 0.00 60 1007.9
20260901022945 21 251 20.9 32.2 0.00 0.00 0.00 60 1007.9
20260901021953 21 254 22.5 32.2 0.00 0.00 0.00 59 1007.8
20260901021450 21 262 22.5 32.2 0.00 0.00 0.00 58 1007.7
20260901020950 21 239 20.9 30.6 0.00 0.00 0.00 58 1007.6
20260901020449 21 223 20.9 30.6 0.00 0.00 0.00 58 1007.6
20260901020213 22 245 20.9 32.2 0.00 0.00 0.00 57 1007.5
20260901015706 22 219 20.9 32.2 0.00 0.00 0.00 57 1007.4
20260901014946 22 281 20.9 29.0 0.00 0.00 0.00 57 1007.5
20260901014445 22 253 19.3 29.0 0.00 0.00 0.00 56 1007.4
20260901013945 22 266 16.1 27.4 0.00 0.00 0.00 56 1007.4
20260901013446 23 281 16.1 27.4 0.00 0.00 0.00 56 1007.4
20260901012944 23 273 16.1 30.6 0.00 0.00 0.00 55 1007.3
20260901012443 24 249 17.7 30.6 0.00 0.00 0.00 54 1007.2
20260901012204 24 281 17.7 27.4 0.00 0.00 0.00 53 1007.3
20260901011442 24 256 19.3 27.4 0.00 0.00 0.00 53 1007.3
20260901010941 25 241 17.7 30.6 0.00 0.00 0.00 52 1007.3
20260901010439 25 253 17.7 30.6 0.00 0.00 0.00 52 1007.2
20260901005939 25 281 17.7 30.6 0.00 0.00 0.00 52 1007.2
20260901005437 25 252 19.3 32.2 0.00 0.00 0.00 51 1007.2
20260901004939 26 247 19.3 32.2 0.00 0.00 0.00 50 1007.0
20260901004440 26 237 17.7 25.7 0.00 0.00 0.00 50 1007.1
20260901003938 26 263 17.7 25.7 0.00 0.00 0.00 50 1007.1
20260901003437 26 264 19.3 32.2 0.00 0.00 0.00 49 1007.0
20260901003158 26 281 20.9 35.4 0.00 0.00 0.00 49 1007.0
20260901002433 26 229 22.5 35.4 0.00 0.00 0.00 49 1006.9
20260901001934 27 253 22.5 37.0 0.00 0.00 0.00 48 1006.8
20260901001434 27 243 20.9 37.0 0.00 0.00 0.00 47 1006.8
20260901000934 28 245 20.9 32.2 0.00 0.00 0.00 46 1006.7
20260901000652 28 262 19.3 32.2 0.00 0.00 0.00 45 1006.7
20260831235931 28 259 14.5 32.2 0.00 0.00 0.00 43 1006.7
20260831235432 30 291 12.9 25.7 0.00 0.00 0.00 42 1006.6
20260831235149 29 281 9.7 20.9 0.00 0.00 0.00 42 1006.6
20260831234652 30 291 9.7 22.5 0.00 0.00 0.00 42 1006.6
20260831233932 30 332 11.3 22.5 0.00 0.00 0.00 41 1006.6
20260831233425 30 258 9.7 19.3 0.00 0.00 0.00 40 1006.6
20260831232923 30 309 9.7 17.7 0.00 0.00 0.00 42 1006.7
20260831232424 29 307 8.0 17.7 0.00 0.00 0.00 43 1006.7
20260831231916 30 332 6.4 16.1 0.00 0.00 0.00 43 1006.7
20260831231415 30 297 8.0 16.1 0.00 0.00 0.00 42 1006.7
20260831230914 29 312 8.0 16.1 0.00 0.00 0.00 42 1006.8
20260831230627 29 249 6.4 16.1 0.00 0.00 0.00 43 1006.9
20260831225905 29 338 6.4 12.9 0.00 0.00 0.00 42 1007.0
20260831225407 29 0 6.4 14.5 0.00 0.00 0.00 45 1007.0
20260831224907 29 343 6.4 14.5 0.00 0.00 0.00 42 1007.0
20260831224402 29 304 4.8 14.5 0.00 0.00 0.00 46 1007.0
20260831224128 28 59 6.4 14.5 0.00 0.00 0.00 42 1007.1
20260831223403 28 346 6.4 19.3 0.00 0.00 0.00 44 1007.1
20260831222901 28 353 6.4 19.3 0.00 0.00 0.00 44 1007.2
20260831222402 28 328 6.4 16.1 0.00 0.00 0.00 45 1007.3
20260831222124 28 18 6.4 14.5 0.00 0.00 0.00 45 1007.2
20260831221401 28 324 8.0 16.1 0.00 0.00 0.00 47 1007.5
20260831220901 28 299 8.0 16.1 0.00 0.00 0.00 46 1007.5
20260831220402 28 291 6.4 16.1 0.00 0.00 0.00 46 1007.6
20260831215859 28 3 6.4 12.9 0.00 0.00 0.00 46 1007.6
20260831215400 27 8 6.4 12.9 0.00 0.00 0.00 49 1007.8
20260831215340 27 313 6.4 14.5 0.00 0.00 0.00 47 1007.8
20260831214357 27 273 6.4 14.5 0.00 0.00 0.00 48 1007.9
20260831213857 27 310 6.4 14.5 0.00 0.00 0.00 48 1007.7
20260831213357 27 14 4.8 12.9 0.00 0.00 0.00 47 1007.9
20260831212855 26 281 4.8 12.9 0.00 0.00 0.00 46 1008.0
20260831212359 26 324 6.4 12.9 0.00 0.00 0.00 51 1008.1
20260831211842 26 291 6.4 19.3 0.00 0.00 0.00 47 1008.1
20260831211340 26 300 3.2 19.3 0.00 0.00 0.00 49 1008.2
20260831210832 26 170 3.2 11.3 0.00 0.00 0.00 48 1008.1
20260831210554 26 291 4.8 11.3 0.00 0.00 0.00 47 1008.2
20260831205834 25 18 3.2 11.3 0.00 0.00 0.00 48 1008.2
20260831205551 25 35 3.2 12.9 0.00 0.00 0.00 49 1008.2
20260831204828 25 342 4.8 12.9 0.00 0.00 0.00 51 1008.3
20260831204325 25 39 4.8 11.3 0.00 0.00 0.00 48 1008.3
20260831204047 26 320 6.4 16.1 0.00 0.00 0.00 49 1008.4
20260831203323 25 317 6.4 16.1 0.00 0.00 0.00 53 1008.3
20260831202821 26 60 4.8 11.3 0.00 0.00 0.00 51 1008.5
20260831202534 25 339 4.8 12.9 0.00 0.00 0.00 54 1008.7
20260831201818 24 64 4.8 12.9 0.00 0.00 0.00 50 1008.7
20260831201534 24 36 3.2 11.3 0.00 0.00 0.00 50 1008.6
20260831200812 25 106 3.2 11.3 0.00 0.00 0.00 50 1008.6
20260831200754 25 347 4.8 11.3 0.00 0.00 0.00 53 1008.8
20260831195811 23 342 3.2 12.9 0.00 0.00 0.00 54 1008.9
20260831195313 23 344 3.2 12.9 0.00 0.00 0.00 54 1009.0
20260831194810 23 274 4.8 14.5 0.00 0.00 0.00 54 1009.1
20260831194308 23 96 3.2 14.5 0.00 0.00 0.00 54 1009.2
20260831193809 23 316 3.2 11.3 0.00 0.00 0.00 57 1009.1
20260831193307 23 335 3.2 14.5 0.00 0.00 0.00 57 1009.2
20260831193040 22 52 4.8 14.5 0.00 0.00 0.00 56 1009.3
20260831192306 22 41 4.8 12.9 0.00 0.00 0.00 57 1009.4
20260831192028 22 49 3.2 11.3 0.00 0.00 0.00 58 1009.5
20260831191303 22 59 4.8 11.3 0.00 0.00 0.00 58 1009.6
20260831190758 22 22 4.8 14.5 0.00 0.00 0.00 60 1009.7
20260831190300 22 317 4.8 14.5 0.00 0.00 0.00 57 1009.7
20260831185754 21 359 3.2 12.9 0.00 0.00 0.00 63 1009.7
20260831185253 21 286 3.2 12.9 0.00 0.00 0.00 60 1009.9
20260831184751 21 349 3.2 11.3 0.00 0.00 0.00 63 1009.8
20260831184516 21 56 4.8 12.9 0.00 0.00 0.00 64 1009.9
20260831184011 21 20 6.4 14.5 0.00 0.00 0.00 64 1009.9
20260831183252 21 320 3.2 14.5 0.00 0.00 0.00 65 1009.9
20260831183013 20 237 3.2 14.5 0.00 0.00 0.00 63 1010.0
20260831182251 21 333 4.8 14.5 0.00 0.00 0.00 66 1010.0
20260831182013 20 16 6.4 14.5 0.00 0.00 0.00 66 1010.0
20260831181251 20 53 6.4 14.5 0.00 0.00 0.00 65 1009.9
20260831181026 20 359 4.8 14.5 0.00 0.00 0.00 68 1010.0
20260831180254 20 28 4.8 11.3 0.00 0.00 0.00 65 1010.1
20260831175744 20 12 4.8 12.9 0.00 0.00 0.00 66 1010.2
20260831175243 19 332 6.4 12.9 0.00 0.00 0.00 67 1010.2
20260831174743 19 52 4.8 12.9 0.00 0.00 0.00 70 1010.3
20260831174243 18 37 4.8 12.9 0.00 0.00 0.00 67 1010.3
20260831174007 19 0 4.8 12.9 0.00 0.00 0.00 66 1010.3
20260831173504 19 308 4.8 14.5 0.00 0.00 0.00 69 1010.2
20260831172734 19 332 4.8 14.5 0.00 0.00 0.00 69 1010.3
20260831172450 19 335 3.2 9.7 0.00 0.00 0.00 69 1010.3
20260831171729 18 37 4.8 11.3 0.00 0.00 0.00 70 1010.3
20260831171230 18 74 3.2 11.3 0.00 0.00 0.00 70 1010.4
20260831170723 18 349 4.8 12.9 0.00 0.00 0.00 72 1010.4
20260831170223 18 308 6.4 12.9 0.00 0.00 0.00 70 1010.3
20260831165717 18 304 4.8 12.9 0.00 0.00 0.00 71 1010.5
20260831165214 18 357 4.8 11.3 0.00 0.00 0.00 72 1010.5
20260831164710 17 344 3.2 8.0 0.00 0.00 0.00 71 1010.5
20260831164206 17 330 4.8 9.7 0.00 0.00 0.00 71 1010.4
20260831163704 17 59 4.8 9.7 0.00 0.00 0.00 72 1010.5
20260831163205 17 76 4.8 9.7 0.00 0.00 0.00 73 1010.5
20260831162704 17 18 3.2 9.7 0.00 0.00 0.00 74 1010.5
20260831162205 16 354 1.6 8.0 0.00 0.00 0.00 78 1010.7
20260831161700 16 29 1.6 4.8 0.00 0.00 0.00 77 1010.7
20260831161154 16 35 1.6 4.8 0.00 0.00 0.00 78 1010.8
20260831160912 15 342 1.6 4.8 0.00 0.00 0.00 79 1010.9
20260831160151 15 79 0.0 4.8 0.00 0.00 0.00 80 1011.0
20260831155649 15 127 0.0 3.2 0.00 0.00 0.00 82 1011.1
20260831155145 14 127 0.0 3.2 0.00 0.00 0.00 81 1011.1
20260831154913 14 127 0.0 1.6 0.00 0.00 0.00 81 1011.1
20260831154136 13 127 0.0 1.6 0.00 0.00 0.00 81 1011.1
20260831153839 13 127 0.0 1.6 0.00 0.00 0.00 83 1011.1
20260831153106 13 127 0.0 1.6 0.00 0.00 0.00 84 1011.1
20260831152603 12 127 0.0 1.6 0.00 0.00 0.00 83 1011.2
20260831152105 12 127 0.0 0.0 0.00 0.00 0.00 84 1011.1
20260831151603 12 127 0.0 0.0 0.00 0.00 0.00 85 1011.0
20260831151059 11 127 0.0 1.6 0.00 0.00 0.00 87 1011.0
20260831150538 11 127 0.0 1.6 0.00 0.00 0.00 86 1011.0
20260831150037 11 127 0.0 1.6 0.00 0.00 0.00 87 1010.8
20260831145530 11 127 0.0 0.0 0.00 0.00 0.00 89 1010.7
20260831145028 10 127 0.0 0.0 0.00 0.00 0.00 90 1010.9
20260831144525 10 127 0.0 0.0 0.00 0.00 0.00 90 1010.8
20260831144022 10 127 0.0 0.0 0.00 0.00 0.00 91 1010.8
20260831143505 10 127 0.0 0.0 0.00 0.00 0.00 91 1010.8
20260831143006 10 127 0.0 0.0 0.00 0.00 0.00 92 1010.9
20260831142505 9 127 0.0 0.0 0.00 0.00 0.00 91 1010.8
20260831141959 9 127 0.0 0.0 0.00 0.00 0.00 91 1010.9
20260831141447 9 127 0.0 0.0 0.00 0.00 0.00 91 1010.8
20260831140928 9 127 0.0 0.0 0.00 0.00 0.00 91 1010.8
20260831140416 9 127 0.0 0.0 0.00 0.00 0.00 90 1010.8
20260831135906 9 127 0.0 1.6 0.00 0.00 0.00 89 1010.9
20260831135405 10 127 0.0 1.6 0.00 0.00 0.00 90 1010.8
20260831134901 10 127 1.6 4.8 0.00 0.00 0.00 90 1010.8
20260831134356 10 127 1.6 4.8 0.00 0.00 0.00 90 1010.8
20260831133854 10 31 1.6 4.8 0.00 0.00 0.00 91 1010.7
20260831133343 9 180 1.6 3.2 0.00 0.00 0.00 91 1010.6
20260831132836 9 180 1.6 3.2 0.00 0.00 0.00 91 1010.6
20260831132331 9 180 0.0 3.2 0.00 0.00 0.00 91 1010.6
20260831131831 9 180 1.6 3.2 0.00 0.00 0.00 91 1010.5
20260831131330 9 180 1.6 3.2 0.00 0.00 0.00 91 1010.6
20260831130828 9 180 1.6 3.2 0.00 0.00 0.00 91 1010.7
20260831130325 9 180 0.0 3.2 0.00 0.00 0.00 91 1010.7
20260831125824 9 180 0.0 3.2 0.00 0.00 0.00 91 1010.8
20260831125326 9 180 0.0 1.6 0.00 0.00 0.00 91 1010.8
20260831124819 9 180 0.0 1.6 0.00 0.00 0.00 91 1010.8
20260831124310 10 180 0.0 1.6 0.00 0.00 0.00 91 1010.9
20260831123804 10 180 1.6 3.2 0.00 0.00 0.00 91 1010.9
20260831123304 10 180 1.6 4.8 0.00 0.00 0.00 90 1011.0
20260831122805 10 180 1.6 4.8 0.00 0.00 0.00 90 1011.0
20260831122251 10 180 1.6 3.2 0.00 0.00 0.00 90 1011.0
20260831121751 10 180 1.6 3.2 0.00 0.00 0.00 89 1011.1
20260831121250 10 180 1.6 3.2 0.00 0.00 0.00 89 1011.1
20260831121242 10 180 1.6 3.2 0.00 0.00 0.00 89 1011.1
20260831120246 10 180 1.6 3.2 0.00 0.00 0.00 89 1011.1
20260831115744 10 180 1.6 3.2 0.00 0.00 0.00 89 1011.1
20260831115246 10 180 1.6 3.2 0.00 0.00 0.00 89 1011.1
20260831114744 10 180 1.6 3.2 0.00 0.00 0.00 89 1011.1
20260831114238 10 180 1.6 4.8 0.00 0.00 0.00 89 1011.0
20260831113958 10 180 1.6 4.8 0.00 0.00 0.00 89 1011.0
20260831113223 10 180 0.0 3.2 0.00 0.00 0.00 89 1011.2
20260831112716 10 180 0.0 0.0 0.00 0.00 0.00 90 1011.1
20260831112208 10 180 0.0 0.0 0.00 0.00 0.00 90 1011.2
20260831111659 10 180 0.0 0.0 0.00 0.00 0.00 91 1011.1
20260831111143 10 180 0.0 0.0 0.00 0.00 0.00 90 1011.1
20260831110631 10 180 0.0 1.6 0.00 0.00 0.00 90 1011.1
20260831110124 10 180 0.0 1.6 0.00 0.00 0.00 89 1011.1
20260831105827 10 180 0.0 1.6 0.00 0.00 0.00 87 1011.1
20260831105100 10 180 0.0 0.0 0.00 0.00 0.00 86 1011.2
20260831104808 11 180 0.0 1.6 0.00 0.00 0.00 86 1011.2
20260831104031 11 180 0.0 1.6 0.00 0.00 0.00 86 1011.1
20260831103754 11 180 0.0 3.2 0.00 0.00 0.00 86 1011.3
20260831103253 11 180 1.6 3.2 0.00 0.00 0.00 85 1011.2
20260831102530 11 180 1.6 3.2 0.00 0.00 0.00 85 1011.3
20260831102028 11 180 1.6 3.2 0.00 0.00 0.00 85 1011.4
20260831101745 11 180 1.6 3.2 0.00 0.00 0.00 85 1011.3
20260831101242 11 180 1.6 3.2 0.00 0.00 0.00 85 1011.4
20260831100516 11 180 3.2 4.8 0.00 0.00 0.00 84 1011.4
20260831100244 11 180 1.6 4.8 0.00 0.00 0.00 84 1011.5
20260831095516 11 267 0.0 3.2 0.00 0.00 0.00 85 1011.5
20260831095007 11 267 0.0 0.0 0.00 0.00 0.00 84 1011.5
20260831094702 11 267 0.0 0.0 0.00 0.00 0.00 84 1011.7
20260831094547 11 267 0.0 0.0 0.00 0.00 0.00 84 1011.6
20260831093456 11 267 0.0 0.0 0.00 0.00 0.00 83 1011.8
20260831092954 11 267 0.0 3.2 0.00 0.00 0.00 83 1011.8
20260831092455 11 267 1.6 3.2 0.00 0.00 0.00 84 1011.7
20260831092212 11 267 1.6 4.8 0.00 0.00 0.00 83 1011.7
20260831091446 11 267 1.6 4.8 0.00 0.00 0.00 82 1011.7
20260831090935 11 267 1.6 3.2 0.00 0.00 0.00 82 1011.8
20260831090430 11 267 0.0 3.2 0.00 0.00 0.00 81 1011.9
20260831085929 12 267 0.0 3.2 0.00 0.00 0.00 82 1011.9
20260831085423 12 267 0.0 3.2 0.00 0.00 0.00 81 1011.9
20260831084919 12 267 1.6 3.2 0.00 0.00 0.00 81 1012.0
20260831084859 12 267 1.6 3.2 0.00 0.00 0.00 82 1012.0
20260831083902 12 267 1.6 4.8 0.00 0.00 0.00 82 1012.1
20260831083358 12 267 1.6 4.8 0.00 0.00 0.00 83 1012.1
20260831083133 12 267 3.2 4.8 0.00 0.00 0.00 82 1012.1
20260831082357 12 267 1.6 4.8 0.00 0.00 0.00 81 1012.1
20260831081851 12 28 0.0 3.2 0.00 0.00 0.00 81 1012.2
20260831081348 12 27 0.0 1.6 0.00 0.00 0.00 81 1012.2
20260831080850 12 27 0.0 1.6 0.00 0.00 0.00 81 1012.1
20260831080349 12 27 0.0 4.8 0.00 0.00 0.00 80 1012.2
20260831075850 13 27 1.6 4.8 0.00 0.00 0.00 79 1012.3
20260831075328 13 27 0.0 3.2 0.00 0.00 0.00 78 1012.4
20260831074832 13 27 0.0 3.2 0.00 0.00 0.00 78 1012.4
20260831074330 13 27 0.0 1.6 0.00 0.00 0.00 78 1012.3
20260831073826 13 27 0.0 1.6 0.00 0.00 0.00 78 1012.4
20260831073318 13 27 0.0 1.6 0.00 0.00 0.00 78 1012.5
20260831072800 13 27 0.0 3.2 0.00 0.00 0.00 77 1012.6
20260831072526 13 27 0.0 6.4 0.00 0.00 0.00 76 1012.7
20260831071801 14 27 1.6 6.4 0.00 0.00 0.00 75 1012.6
20260831071300 13 18 1.6 4.8 0.00 0.00 0.00 75 1012.7
20260831070748 13 18 3.2 6.4 0.00 0.00 0.00 75 1012.6
20260831070247 13 10 1.6 6.4 0.00 0.00 0.00 76 1012.6
20260831065745 13 13 1.6 4.8 0.00 0.00 0.00 76 1012.7
20260831065232 13 241 1.6 3.2 0.00 0.00 0.00 76 1012.7
20260831064722 13 241 3.2 4.8 0.00 0.00 0.00 76 1012.8
20260831064211 13 241 3.2 4.8 0.00 0.00 0.00 76 1012.8
20260831063711 13 241 1.6 4.8 0.00 0.00 0.00 75 1012.8
20260831063211 14 351 0.0 4.8 0.00 0.00 0.00 74 1012.8
20260831062712 14 351 0.0 1.6 0.00 0.00 0.00 73 1012.8
20260831062413 14 351 1.6 4.8 0.00 0.00 0.00 73 1012.8
20260831061652 14 351 3.2 6.4 0.00 0.00 0.00 73 1012.8
20260831061150 14 351 3.2 6.4 0.00 0.00 0.00 72 1012.8
20260831060648 14 331 1.6 4.8 0.00 0.00 0.00 74 1012.8
20260831060141 14 357 0.0 3.2 0.00 0.00 0.00 72 1012.9
20260831055630 15 357 0.0 3.2 0.00 0.00 0.00 71 1013.0
20260831055112 15 357 0.0 4.8 0.00 0.00 0.00 70 1012.9
20260831054615 15 357 0.0 4.8 0.00 0.00 0.00 69 1013.0
20260831054058 15 357 1.6 6.4 0.00 0.00 0.00 68 1013.0
20260831053811 16 357 3.2 6.4 0.00 0.00 0.00 68 1012.9
20260831053051 16 339 3.2 8.0 0.00 0.00 0.00 67 1013.1
20260831052811 16 345 3.2 8.0 0.00 0.00 0.00 67 1013.1
20260831052315 16 333 1.6 4.8 0.00 0.00 0.00 66 1013.2
20260831051545 16 337 3.2 6.4 0.00 0.00 0.00 65 1013.2
20260831051036 17 334 4.8 12.9 0.00 0.00 0.00 65 1013.3
20260831050805 17 15 6.4 12.9 0.00 0.00 0.00 64 1013.3
20260831050035 17 12 6.4 11.3 0.00 0.00 0.00 64 1013.3
20260831045531 17 357 4.8 9.7 0.00 0.00 0.00 63 1013.5
20260831045034 17 8 4.8 9.7 0.00 0.00 0.00 62 1013.4
20260831044533 18 25 6.4 11.3 0.00 0.00 0.00 61 1013.4
20260831044033 18 348 6.4 16.1 0.00 0.00 0.00 60 1013.4
20260831043532 18 0 8.0 16.1 0.00 0.00 0.00 59 1013.4
20260831043033 18 35 8.0 14.5 0.00 0.00 0.00 59 1013.4
20260831042532 18 35 8.0 17.7 0.00 0.00 0.00 59 1013.3
20260831042032 19 32 8.0 17.7 0.00 0.00 0.00 58 1013.3
20260831041822 19 1 9.7 17.7 0.00 0.00 0.00 57 1013.2
20260831041739 19 4 8.0 17.7 0.00 0.00 0.00 57 1013.3
20260831040529 19 30 11.3 22.5 0.00 0.00 0.00 56 1013.2
20260831040031 20 14 11.3 24.1 0.00 0.00 0.00 56 1013.1
20260831035534 20 18 11.3 24.1 0.00 0.00 0.00 56 1013.1
20260831035030 20 31 8.0 19.3 0.00 0.00 0.00 56 1013.1
20260831034524 20 26 8.0 17.7 0.00 0.00 0.00 56 1013.1
20260831034025 20 22 9.7 19.3 0.00 0.00 0.00 55 1013.1
20260831033747 20 58 8.0 19.3 0.00 0.00 0.00 55 1013.2
20260831033023 20 24 6.4 14.5 0.00 0.00 0.00 55 1013.1
20260831032522 20 16 8.0 14.5 0.00 0.00 0.00 55 1013.1